KOSEN 1
1 49402U 21102H   25340.59503755  .00014599  00000-0  61278-3 0  9993
2 49402  97.3472  21.6139 0015117 161.7101 198.4683 15.23462519224664
HO-113
1 50466U 21131B   25340.54017008  .00001236  00000-0  39740-3 0  9996
2 50466  98.5062  68.9931 0003380 329.1140  30.9850 14.41099824207368
SNUGLITE 2
1 52899U 22065F   25340.65026294  .00002741  00000-0  53418-3 0  9994
2 52899  98.1924 121.2177 0006387 267.7043  92.3428 14.63809464182826
UmKA 1 (RS40S)
1 57172U 23091G   25340.61226502  .00011630  00000-0  57247-3 0  9994
2 57172  97.5348  35.1040 0015081  72.8297 287.4586 15.18046966134760
CubeBel-2 (EU11S)
1 57175U 23091K   25340.61445121  .00022175  00000-0  92055-3 0  9999
2 57175  97.5345  37.5387 0012363  75.8029 284.4580 15.23785529134926
RS-38S
1 57189U 23091Z   25340.62057147  .00026270  00000-0  92973-3 0  9991
2 57189  97.5370  41.9435 0009190  43.2579 316.9381 15.29085926135195
SONATE-2
1 59112U 24043Q   25340.62895919  .00044028  00000-0  94332-3 0  9996
2 59112  97.5332 116.6544 0008952 183.7748 176.3434 15.44595646 98035
MO-122
1 60209U 24125G   25340.57468239  .00048347  00000-0  99489-3 0  9997
2 60209  97.2522 190.9441 0013758 201.6815 158.3853 15.45701654 79659
GRBBeta
1 60237U 24128C   25340.63766877  .00007941  00000-0  55671-3 0  9997
2 60237  61.9884 170.9015 0056543  95.4779 265.2767 15.04660688 77275
Curium One
1 60242U 24128H   25340.63230863  .00015005  00000-0  92876-3 0  9992
2 60242  61.9775 165.9406 0056265  92.4101 268.3436 15.08716278 77363
ROBUSTA-3A
1 60243U 24128J   25340.63298467  .00011458  00000-0  72539-3 0  9999
2 60243  61.9850 167.4438 0056346  89.8781 270.8769 15.08083611 77347
CatSat
1 60246U 24125J   25340.56772765  .00056347  00000-0  13823-2 0  9995
2 60246  97.2317 188.0205 0033962 166.5503 193.6656 15.39908811 77579
HYPERVIEW-1G (RS66S)
1 61772U 24199AP  25340.59974847  .00063301  00000-0  12397-2 0  9992
2 61772  97.3211 209.9600 0008089 265.8398  94.1928 15.47145404104665
AO-123
1 61781U 24199AY  25340.59761276  .00017023  00000-0  55567-3 0  9999
2 61781  97.3251 206.1152 0013010 280.8133  79.1644 15.31755042104402
ZIMSAT 2
1 61783U 24199BA  25340.61907617  .00266025  00000-0  21314-2 0  9995
2 61783  97.3096 213.2896 0002874 236.1777 123.9212 15.70235261108041
HADES-R (SO-124)
1 62690U 25009CK  25340.08550678  .00211110  00000-0  29348-2 0  9996
2 62690  97.3893  62.4623 0001594 230.2126 129.8988 15.56255544 49743
HYDRA-T
1 62692U 25009CM  25340.19957169  .00223626  00000-0  29253-2 0  9996
2 62692  97.3888  62.7665 0001548 241.5876 118.5224 15.57856788 49773
JINJUSat 1B
1 63210U 25052A   25340.16496074  .00024256  00000-0  93304-3 0  9998
2 63210  97.4208 232.3623 0005889  61.8192 298.3640 15.26375375 40585
NUSHSAT 1
1 63211U 25052B   25340.62329880  .00031173  00000-0  11606-2 0  9990
2 63211  97.4187 232.9309 0005973  62.5671 297.6175 15.27405226 40667
TEVEL2-4
1 63213U 25052D   25340.62151249  .00029929  00000-0  11367-2 0  9994
2 63213  97.4108 232.4940 0005296  74.9279 285.2546 15.26757838 40659
TEVEL2-5
1 63214U 25052E   25340.62667781  .00029138  00000-0  11093-2 0  9996
2 63214  97.4102 232.4874 0005189  75.1365 285.0448 15.26685082 40650
TEVEL2-6
1 63215U 25052F   25340.04387850  .00026903  00000-0  10272-2 0  9994
2 63215  97.4111 231.8974 0005352  76.8600 283.3235 15.26604056 40564
TEVEL2-1
1 63217U 25052H   25340.47850298  .00028672  00000-0  11041-2 0  9994
2 63217  97.4082 232.1452 0005439  84.0910 276.0949 15.26307039 40628
TEVEL2-3
1 63218U 25052J   25340.60891033  .00028901  00000-0  11119-2 0  9993
2 63218  97.4085 232.2795 0005374  84.4284 275.7567 15.26336246 40645
TEVEL2-2
1 63219U 25052K   25340.61039701  .00028347  00000-0  10913-2 0  9996
2 63219  97.4081 232.2762 0005399  84.7410 275.4445 15.26315885 40645
TEVEL2-9
1 63237U 25052AD  25340.63307407  .00026971  00000-0  10849-2 0  9998
2 63237  97.4146 232.0142 0009202  98.1982 262.0300 15.24836719 40618
TEVEL2-7
1 63238U 25052AE  25340.64639138  .00027815  00000-0  11234-2 0  9996
2 63238  97.4149 232.0021 0009290  98.6358 261.5932 15.24692161 40613
TEVEL2-8
1 63239U 25052AF  25340.65192583  .00027107  00000-0  10959-2 0  9993
2 63239  97.4145 231.9929 0009241  99.3572 260.8711 15.24663872 40611
HYDRA-W
1 63490U 25052BL  25339.68759526  .00102343  00000-0  25268-2 0  9994
2 63490  97.4068 233.3733 0011534  89.2543 271.0024 15.40053942 40639
HADES-ICM (SO-125)
1 63492U 25052BN  25339.67379024  .00092213  00000-0  24179-2 0  9990
2 63492  97.4080 233.1096 0011550  92.7552 267.5015 15.38250928 40610
Dragonfly
1 65729U 98067XH  25339.92998556  .00170954  00000-0  14111-2 0  9990
2 65729  51.6246 170.5624 0006512 233.7397 126.2998 15.69233632 12097
RSP-03
1 65732U 98067XL  25340.55552256  .00153185  00000-0  14056-2 0  9993
2 65732  51.6248 167.9959 0006310 211.4337 148.6282 15.66703439 12196
GHS-01
1 65733U 98067XM  25340.59214212  .00252273  00000-0  18514-2 0  9996
2 65733  51.6264 166.7395 0006907 238.9064 121.1257 15.71789944 12211
BOTAN
1 65942U 98067XP  25339.80843050  .00125200  00000-0  14405-2 0  9992
2 65942  51.6268 174.2609 0004096 186.0920 174.0025 15.61079270  8780
SPIRONE
1 66657U 25274H   25340.50895770  .00004924  00000-0  48586-3 0  9998
2 66657  97.7389 267.8223 0010975 300.0150  59.9980 14.92396474  1477
K-HERO
1 66660U 25274L   25340.50559669  .00004682  00000-0  45617-3 0  9999
2 66660  97.7397 267.8271 0012933 304.6853  55.3147 14.92904179  1471
CEVROSAT1
1 98526U 25248E   25313.13142326  .00000000  00000-0  19360-3 0    02
2 98526  45.4084 218.4764 0001315 254.8982 242.1062 15.17981583    02
